"Pseudo-MPEC" for P10Ijui

Created 2018 Jul 15 11:18:17 UT using Find_Orb

Click here for an explanation of pseudo-MPECs

 
 Astrometry: 
     P10Ijui  C2018 07 10P)Astrometry1g4qU-LYvu$F\Cgaak_y0jXH5[1fv-RnK-UxfKN;F51
     P10Ijui  C2018 07 10OOwLp^4bDgrhEt$Z+Dx\Q*PVk_TX0]M92Kf(cTjaAPg6.Gv,X]*bF51
     P10Ijui  C2018 07 109PGHb1_5Jq`6S$jxe2:oSQWT'c._m!nCp+3U@]L[tY_W$*rN]#+lF51
     P10Ijui  C2018 07 10*oCImD=6F3AYhpnwjredacted;N6c+:mWh+ZNwCwalE_d[_wW@siF51
     P10Ijui KC2018 07 124p3,vHj%CO:qLXn#@:HY$*?Va7vZd*:'j6)jZbg/855`9U!a4YE-474
     P10Ijui KC2018 07 125`EetKPXe1HV:m6V4F3M5H3N#hjkHiy]*x#XIS7i_EX,[hA[!HqI474
     P10Ijui KC2018 07 12[yJirL3K/=IfuL?f;]L`o2v^SW_!(c7(seei;K;g^@PUC=+p6q1t474
     P10Ijui |C2018 07 14wrCdn[=%us.^djM%oCl.cvc-9H#Pth$q:![b]ShXPpjtwIi@ow^k807
     P10Ijui |C2018 07 14;k+cH5]69/Q:D9QQ[cWeY!_1JO+?i1A4p_\+BMD+X8PKj'--9Lg:807
     P10Ijui |C2018 07 142R?;]^A'Ic;?HRJDYH*7;4b+oI8.vY#beB#IDPPaEIcQt.0NEOCP807

Station data:
(474) Mount John Observatory, Lake Tekapo  (S43.987388 E170.464960)  New
   Zealand.  Observers A. C. Gilmore, P. M. Kilmartin. Measurer P. M.
   Kilmartin. 1.0-m f/7.7 reflector + CCD.
(807) Cerro Tololo Observatory, La Serena  (S30.169136 W70.805900)  Chile.
   1.5-m Ritchey-Chrétien.
(F51) Pan-STARRS 1, Haleakala  (N20.707235 W156.255910)  US/Hawaii.
   Observers N. Primak, A. Schultz, S. Watters, J. Thiel, T. Goggia. Measurer
   PS1 Science Consortium. 1.8-m Ritchey-Chrétien + CCD.

Orbital elements:  P10Ijui
   Perihelion 2018 Aug 6.101846 TT =  2:26:39 (JD 2458336.601846)
Epoch 2018 Jul 14.0 TT = JDT 2458313.5   Earth MOID: 0.4595   Ma: 0.0890
M 352.91991                         (J2000 ecliptic)
n   0.30647258     Peri.  318.97694
a   2.17875450     Node   357.79848
e   0.3265521      Incl.    5.30575
P   3.22           H   20.9     G   0.15   q 1.46727744  Q 2.89023155
From 10 observations 2018 July 10-14; mean residual 0".05
Residuals in arcseconds: 
180710 F51  .01+  .03+    180712 474  .07-  .00     180714 807  .04-  .01+    
180710 F51  .00   .02-    180712 474  .03+  .13+    180714 807  .07+  .01+    
180710 F51  .05+  .02-    180712 474  .01+  .04-    
180710 F51  .04-  .04-    180714 807  .00   .08-    

Ephemerides (geocentric):
Date (UTC) HH   RA              Dec         delta   r     elong  mag
---- -- -- --  -------------   -----------  ------ ------ -----  ---
2018 07 15 11  22 04 53.153   -25 01 04.96  .52068 1.4777 146.2 21.4
2018 07 15 12  22 04 54.254   -25 00 57.44  .52052 1.4777 146.2 21.4
2018 07 15 13  22 04 55.350   -25 00 49.90  .52036 1.4776 146.2 21.4
2018 07 15 14  22 04 56.441   -25 00 42.37  .52020 1.4776 146.3 21.4
2018 07 15 15  22 04 57.527   -25 00 34.83  .52003 1.4776 146.3 21.4
2018 07 15 16  22 04 58.608   -25 00 27.29  .51987 1.4775 146.3 21.4
2018 07 15 17  22 04 59.685   -25 00 19.75  .51971 1.4775 146.4 21.4
2018 07 15 18  22 05 00.757   -25 00 12.20  .51955 1.4774 146.4 21.4
2018 07 15 19  22 05 01.824   -25 00 04.65  .51938 1.4774 146.4 21.4
2018 07 15 20  22 05 02.886   -24 59 57.10  .51922 1.4774 146.5 21.4
2018 07 15 21  22 05 03.943   -24 59 49.54  .51906 1.4773 146.5 21.4
2018 07 15 22  22 05 04.996   -24 59 41.98  .51890 1.4773 146.5 21.4
2018 07 15 23  22 05 06.044   -24 59 34.41  .51874 1.4772 146.6 21.4
2018 07 16 00  22 05 07.087   -24 59 26.84  .51858 1.4772 146.6 21.4
2018 07 16 01  22 05 08.125   -24 59 19.27  .51842 1.4772 146.6 21.4
2018 07 16 02  22 05 09.159   -24 59 11.70  .51826 1.4771 146.7 21.4
2018 07 16 03  22 05 10.187   -24 59 04.12  .51810 1.4771 146.7 21.4
2018 07 16 04  22 05 11.211   -24 58 56.54  .51794 1.4770 146.7 21.4
2018 07 16 05  22 05 12.230   -24 58 48.95  .51778 1.4770 146.8 21.4
2018 07 16 06  22 05 13.245   -24 58 41.36  .51762 1.4770 146.8 21.4
2018 07 16 07  22 05 14.254   -24 58 33.77  .51746 1.4769 146.8 21.4
2018 07 16 08  22 05 15.259   -24 58 26.17  .51730 1.4769 146.9 21.4
2018 07 16 09  22 05 16.259   -24 58 18.57  .51714 1.4769 146.9 21.4
2018 07 16 10  22 05 17.255   -24 58 10.97  .51698 1.4768 146.9 21.4
2018 07 16 11  22 05 18.245   -24 58 03.36  .51683 1.4768 147.0 21.4
2018 07 16 12  22 05 19.231   -24 57 55.75  .51667 1.4767 147.0 21.4
2018 07 16 13  22 05 20.212   -24 57 48.13  .51651 1.4767 147.0 21.4
2018 07 16 14  22 05 21.188   -24 57 40.51  .51635 1.4767 147.1 21.4
2018 07 16 15  22 05 22.160   -24 57 32.89  .51619 1.4766 147.1 21.4
2018 07 16 16  22 05 23.126   -24 57 25.26  .51604 1.4766 147.1 21.4
2018 07 16 17  22 05 24.088   -24 57 17.63  .51588 1.4766 147.1 21.4
2018 07 16 18  22 05 25.045   -24 57 10.00  .51572 1.4765 147.2 21.4
2018 07 16 19  22 05 25.998   -24 57 02.36  .51557 1.4765 147.2 21.4
2018 07 16 20  22 05 26.945   -24 56 54.72  .51541 1.4764 147.2 21.4
2018 07 16 21  22 05 27.888   -24 56 47.07  .51525 1.4764 147.3 21.4
2018 07 16 22  22 05 28.826   -24 56 39.42  .51510 1.4764 147.3 21.4
2018 07 16 23  22 05 29.760   -24 56 31.76  .51494 1.4763 147.3 21.4
2018 07 17 00  22 05 30.688   -24 56 24.10  .51478 1.4763 147.4 21.4
2018 07 17 01  22 05 31.612   -24 56 16.44  .51463 1.4763 147.4 21.4
2018 07 17 02  22 05 32.531   -24 56 08.77  .51447 1.4762 147.4 21.4
2018 07 17 03  22 05 33.445   -24 56 01.10  .51432 1.4762 147.5 21.4
2018 07 17 04  22 05 34.355   -24 55 53.42  .51416 1.4761 147.5 21.4
2018 07 17 05  22 05 35.259   -24 55 45.74  .51401 1.4761 147.5 21.4
2018 07 17 06  22 05 36.159   -24 55 38.06  .51385 1.4761 147.6 21.4
2018 07 17 07  22 05 37.055   -24 55 30.37  .51370 1.4760 147.6 21.4
2018 07 17 08  22 05 37.945   -24 55 22.67  .51355 1.4760 147.6 21.4
2018 07 17 09  22 05 38.831   -24 55 14.97  .51339 1.4760 147.7 21.4
2018 07 17 10  22 05 39.712   -24 55 07.27  .51324 1.4759 147.7 21.4